Location: Newark
(49.8753°N, 23.0797°E)
Time: 03:49:01
(UTC+00:00)

X-37B - Pass Details

Date: 23 June 2021
Orbit: 383 x 392 km, 45.0° (Epoch: 01 July)

Event Time Altitude Azimuth Distance (km) Brightness Sun altitude
Rises 20:32:40 0° 234° (SW) 2,250 4.4 -12.2°
Reaches altitude 10° 20:34:57 10° 220° (SW) 1,399 3.2 -12.4°
Maximum altitude 20:37:33 24° 164° (SSE) 843 1.7 -12.6°
Enters shadow 20:37:37 24° 162° (SSE) 844 1.7 -12.6°
